Location: Arboucave
(43.6130°N, 0.4343°W)
Time: 08:05:00
(UTC+00:00)

RESURS DK-1 - Pass Details

Date: 17 November 2025
Orbit: 524 x 534 km, 69.9° (Epoch: 13 December)

Event Time Altitude Azimuth Distance (km) Brightness Sun altitude
Rises 17:04:36 0° 342° (NNW) 2,695 5.8 -5.8°
Reaches altitude 10° 17:07:01 10° 354° (N) 1,800 4.8 -6.2°
Maximum altitude 17:10:32 29° 55° (NE) 1,009 3.1 -6.8°
Drops below altitude 10° 17:14:02 10° 117° (ESE) 1,787 4.5 -7.4°
Sets 17:16:25 0° 129° (SE) 2,673 5.5 -7.8°
